Flag for Mongolia Weather past 2 weeks in Ulaanbaatar, Mongolia

Now
27 °F

Clear.


Feels Like: 27 °F
Forecast: 11 / 50 °F
Wind: 1 mph from North

Location: Ulan-Bator

Current Time: Mar 27, 2015 at 9:27:58 PM

Latest Report: Mar 27, 2015 at 9:00 PM


Visibility: 10 mi

Pressure: 30.07 "Hg

Humidity: 80%

Dew point: 21 °F

Location of UlaanbaatarLocation

Historic Weather in Ulaanbaatar — Graph

°F

Ulaanbaatar temperature yesterday

Maximum temperature yesterday: 59 °F (at 3:30 PM)
Minimum temperature yesterday: 23 °F (at 6:30 AM)
Average temperature yesterday: 41 °F

Past Weeks' High & Low Weather Summary

 TemperatureHumidityPressure
High63 °F (Mar 25, 4:00 PM)100% (Mar 27, 10:30 AM)30.39 "Hg (Mar 27, 10:30 AM)
Low-15 °F (Mar 16, 5:00 AM)9% (Mar 24, 6:30 PM)29.71 "Hg (Mar 14, 4:00 AM)
Average21 °F57%29.98 "Hg
* Reported Mar 12 8:00 PM — Mar 27 8:30 PM, Ulaanbaatar, Weather by CustomWeather, © 2015

Note: Actual official high and low records may vary slightly from our data, if they occured in-between our weather recording intervals... More about our weather records

Advertising

Ulaanbaatar weather history for previous 24 hours

 ConditionsComfort  
Time TempWeatherWind HumidityBarometerVisibility
8:30 PM
Fri, Mar 27
30 °FClear.3 mph75%30.07 "Hg10 mi
8:00 PM32 °FPassing clouds.6 mph75%30.07 "HgN/A
7:30 PM30 °FSunny.1 mph80%30.07 "Hg10 mi
7:00 PM34 °FPassing clouds.1 mph70%30.07 "HgN/A
6:30 PM36 °FPassing clouds.6 mph70%30.04 "HgN/A
6:00 PM36 °FPassing clouds.6 mph70%30.04 "HgN/A
5:30 PM36 °FPassing clouds.10 mph70%30.04 "HgN/A
5:00 PM34 °FScattered clouds.13 mph81%30.01 "HgN/A
4:30 PM36 °FPartly sunny.13 mph75%30.01 "HgN/A
4:00 PM34 °FPartly sunny.15 mph87%29.98 "HgN/A
3:30 PM34 °FPartly sunny.17 mph87%29.98 "HgN/A
3:00 PM34 °FPartly sunny.17 mph87%29.98 "HgN/A
2:30 PM34 °FPartly sunny.17 mph93%29.95 "HgN/A
2:00 PM34 °FPartly sunny.17 mph93%29.95 "HgN/A
1:30 PM32 °FScattered clouds.17 mph100%29.95 "HgN/A
1:00 PM32 °FScattered clouds.3 mph100%29.92 "HgN/A
12:30 PM32 °FSnow. Partly sunny.3 mph93%29.92 "Hg1 mi
12:00 PM30 °FHeavy snow. Scattered clouds.1 mph100%29.92 "Hg1 mi
11:00 AM30 °FHeavy snow. Scattered clouds.8 mph93%29.92 "Hg0 mi
10:30 AM30 °FHeavy snow. Scattered clouds.10 mph100%29.92 "Hg0 mi
10:00 AM32 °FHeavy snow. Scattered clouds.1 mph93%29.89 "Hg1 mi
9:30 AM32 °FSnow showers. Scattered clouds.3 mph93%29.89 "Hg1 mi
9:00 AM36 °FLight rain. Partly sunny.10 mph87%N/A5 mi
8:30 AM37 °FLight rain. Scattered clouds.15 mph81%29.83 "HgN/A
8:00 AM37 °FLight rain. Scattered clouds.15 mph81%29.83 "Hg5 mi
7:30 AM36 °FLight rain. Passing clouds.10 mph87%29.86 "HgN/A
7:00 AM37 °FLight rain. Passing clouds.8 mph87%29.86 "Hg5 mi
6:30 AM37 °FLight rain. Passing clouds.13 mph70%29.89 "Hg5 mi
6:00 AM37 °FPassing clouds.17 mph65%29.83 "HgN/A
5:30 AM32 °FPassing clouds.3 mph75%29.86 "HgN/A
5:00 AM30 °FPassing clouds.3 mph80%29.89 "HgN/A
4:00 AM34 °FPassing clouds.3 mph75%29.92 "HgN/A
3:00 AM32 °FPassing clouds.1 mph75%29.92 "HgN/A
2:00 AM30 °FPassing clouds.3 mph80%29.95 "HgN/A
1:30 AM34 °FPassing clouds.1 mph70%29.95 "HgN/A
1:00 AM32 °FPassing clouds.No wind75%29.98 "HgN/A
12:30 AM34 °FPassing clouds.1 mph70%29.98 "HgN/A
12:00 AM32 °FPassing clouds.1 mph75%29.98 "HgN/A
11:30 PM
Thu, Mar 26
34 °FPassing clouds.3 mph70%30.01 "HgN/A
11:00 PM32 °FPassing clouds.3 mph69%29.98 "HgN/A
10:30 PM28 °FClear.1 mph80%29.98 "Hg10 mi
10:00 PM32 °FClear.No wind75%29.98 "Hg10 mi
9:30 PM34 °FClear.3 mph65%29.98 "Hg10 mi
9:00 PM37 °FClear.No wind60%29.98 "Hg10 mi
Weather by CustomWeather, © 2015

See weather overviewHow to use our weather pages